sat.trackr.live / text

‹ back to catalog

ONEWEB-0130

NORAD 47276 · 2020-100U

PAYLOAD ACTIVE UNKNOWN

§ Identity

Operator
Country
UK
Launch date
2020-12-18
Launch site
VOSTO
Launch vehicle
Mass (kg)
RCS (m²)

Purposes: comms

External: N2YO · Heavens-Above · Gunter

§ Orbital elements

Epoch: 2026-09-20T04:21:11.993184Z

Period
109.72 min
Inclination
87.8986°
Eccentricity
0.0001850
Mean motion
13.12442385 rev/d
Perigee alt
1,212.3 km
Apogee alt
1,215.1 km
Semi-major
7,591.9 km
B*
1.1934e-3
RAAN
331.7977°
Arg perigee
97.0815°
Mean anomaly
263.0524°
Rev number
27,710

§ Raw data

ONEWEB-01301 47276U 20100U   26263.18138881  .00000442  00000+0  11934-2 0  99952 47276  87.8986 331.7977 0001850  97.0815 263.0524 13.12442385277107

JSON: /api/v1/satellites/47276 · /tle

For live sub-satellite position, see the globe view (requires WebGL).

§ Visibility from observer

Set your observer location to see the next 7 days of passes ≥ 10°. The values pass through the URL so the page stays shareable.

No JS? Fill the form by hand. The geolocation button needs JavaScript.